Simultaneous Nadir Overpasses (SNOs) Predictions

Prediction of SNOs between AQUA and METOP-B Satellite Orbit:

Table of predicted SNOs for the next 14.0 days since TLE Epoch: 1/10/2020
Index Date (AQUA) Time (AQUA) Lat,Lon (AQUA) SZA (AQUA ) Date (METOP-B) Time (METOP-B) Lat,Lon (METOP-B) SZA (METOP-B ) Distance(km) Time Diff (sec)
1 01/11/2020 06:20:39 73.77, 79.15 95.68 01/11/2020 06:19:39 73.76, 79.21 95.68 2.43 60
2 01/11/2020 07:10:05 -73.81,-113.31 84.28 01/11/2020 07:10:20 -73.80,-113.36 84.29 2.40 15
3 01/11/2020 07:59:42 74.28, 53.26 96.23 01/11/2020 08:00:50 74.28, 55.17 96.15 57.46 68
4 01/14/2020 01:54:55 73.74, 145.63 95.21 01/14/2020 01:54:03 73.75, 145.60 95.23 1.00 52
5 01/14/2020 02:44:22 -73.83, -46.92 84.70 01/14/2020 02:44:43 -73.84, -46.85 84.70 2.40 21
6 01/14/2020 03:34:04 74.57, 119.01 96.09 01/14/2020 03:35:08 74.57, 122.31 95.97 97.89 64
7 01/16/2020 21:29:11 73.78,-148.02 94.75 01/16/2020 21:28:25 73.79,-147.91 94.76 3.49 46
8 01/16/2020 22:18:37 -73.81, 19.56 85.23 01/16/2020 22:19:06 -73.84, 19.54 85.21 2.85 29
9 01/19/2020 17:03:27 73.78, -81.57 94.19 01/19/2020 17:02:49 73.77, -81.53 94.19 1.15 38
10 01/19/2020 17:52:54 -73.85, 85.92 85.75 01/19/2020 17:53:30 -73.83, 85.93 85.77 2.38 36
11 01/22/2020 12:37:43 73.78, -15.13 93.58 01/22/2020 12:37:13 73.75, -15.16 93.57 2.63 30
12 01/22/2020 13:27:10 -73.84, 152.37 86.36 01/22/2020 13:27:53 -73.86, 152.42 86.35 3.11 43




NCC Satellite Simultaneous Nadir Overpasses (SNOs) Prediction Service
